EW2930 Weather Reports


time (UTC)temp
F
wind
direction
speed
knots
gust
knots
rain 1hr
in
rain 24hr
in
rain mn
in
humidity
%
barometer
mb
20260906115526 66 49 2.6 6.1 0.00 0.00 0.00 96 1019.7
20260906114846 0 68 5.2 5.2 0.00 0.00 0.00
20260906114057 66 42 2.6 5.2 0.00 0.00 0.00 96 1019.4
20260906113417 66 50 2.6 5.2 0.00 0.00 0.00 96 1019.4
20260906112737 0 63 1.7 1.7 0.00 0.00 0.00
20260906111945 66 56 3.5 5.2 0.00 0.00 0.00 96 1019.4
20260906111305 66 61 3.5 6.1 0.00 0.00 0.00 96 1019.4
20260906110626 66 59 3.5 6.1 0.00 0.00 0.00 96 1019.0
20260906105946 66 51 4.3 6.1 0.00 0.00 0.00 96 1019.0
20260906105307 66 57 2.6 6.1 0.00 0.00 0.00 96 1019.0
20260906104626 66 44 3.5 6.1 0.00 0.00 0.00 96 1019.0
20260906103946 66 36 2.6 5.2 0.00 0.00 0.00 96 1019.0
20260906103306 65 48 3.5 5.2 0.00 0.00 0.00 96 1019.0
20260906102626 65 58 3.5 6.1 0.00 0.00 0.00 96 1019.0
20260906101946 65 45 3.5 5.2 0.00 0.00 0.00 96 1019.0
20260906101306 0 17 0.9 0.9 0.00 0.00 0.00
20260906100517 65 47 4.3 5.2 0.00 0.00 0.00 96 1018.7
20260906095837 65 46 3.5 5.2 0.00 0.00 0.00 96 1018.7
20260906095157 0 58 2.6 2.6 0.00 0.00 0.00
20260906094258 65 52 4.3 7.0 0.00 0.00 0.00 96 1018.7
20260906093618 65 37 3.5 7.0 0.00 0.00 0.00 96 1018.7
20260906092938 65 57 4.3 7.0 0.00 0.00 0.00 96 1018.7
20260906092259 65 51 4.3 7.0 0.00 0.00 0.00 96 1018.4
20260906091618 65 25 2.6 6.1 0.00 0.00 0.00 96 1018.4
20260906090829 65 53 3.5 7.0 0.00 0.00 0.00 95 1018.4
20260906090150 65 50 3.5 7.0 0.00 0.00 0.00 95 1018.4
20260906085509 65 37 3.5 7.8 0.00 0.00 0.00 95 1018.4
20260906084829 65 36 3.5 7.0 0.00 0.00 0.00 95 1018.7
20260906084149 65 44 4.3 7.8 0.00 0.00 0.00 95 1018.4
20260906083509 65 46 4.3 6.1 0.00 0.00 0.00 95 1018.4
20260906082829 65 43 4.3 6.1 0.00 0.00 0.00 95 1018.4
20260906082149 65 51 4.3 7.0 0.00 0.00 0.00 95 1018.4
20260906081509 65 48 3.5 6.1 0.00 0.00 0.00 95 1018.4
20260906080829 66 47 3.5 5.2 0.00 0.00 0.00 95 1018.7
20260906080150 66 29 4.3 7.0 0.00 0.00 0.00 95 1018.4
20260906075510 66 25 2.6 6.1 0.00 0.00 0.00 95 1018.4
20260906074829 66 50 4.3 7.0 0.00 0.00 0.00 95 1018.4
20260906074150 66 45 4.3 7.0 0.00 0.00 0.00 95 1018.4
20260906073509 66 24 2.6 6.1 0.00 0.00 0.00 94 1018.4
20260906072830 66 50 4.3 6.1 0.00 0.00 0.00 94 1018.4
20260906072150 66 28 2.6 6.1 0.00 0.00 0.00 94 1018.4
20260906071509 66 49 3.5 6.1 0.00 0.00 0.00 94 1018.4
20260906070829 66 45 3.5 5.2 0.00 0.00 0.00 94 1018.4
20260906070149 66 42 3.5 5.2 0.00 0.00 0.00 94 1018.4
20260906065509 0 45 5.2 5.2 0.00 0.00 0.00
20260906064610 0 35 2.6 2.6 0.00 0.00 0.00
20260906063711 67 35 3.5 6.1 0.00 0.00 0.00 94 1018.7
20260906063031 67 18 3.5 5.2 0.00 0.00 0.00 94 1018.7
20260906062351 67 42 2.6 6.1 0.00 0.00 0.00 93 1018.7
20260906061711 68 32 3.5 6.1 0.00 0.00 0.00 93 1018.7
20260906061031 68 28 2.6 5.2 0.00 0.00 0.00 94 1018.7
20260906060351 0 48 4.3 4.3 0.00 0.00 0.00
20260906055603 68 56 3.5 6.1 0.00 0.00 0.00 93 1018.7
20260906054923 68 71 3.5 5.2 0.00 0.00 0.00 93 1018.7
20260906054243 0 70 3.5 3.5 0.00 0.00 0.00
20260906053455 69 56 3.5 7.8 0.00 0.00 0.00 92 1018.7
20260906052815 69 55 5.2 8.7 0.00 0.00 0.00 92 1018.7
20260906052135 69 62 5.2 7.0 0.00 0.00 0.00 92 1018.7
20260906051455 69 59 3.5 6.1 0.00 0.00 0.00 92 1018.7
20260906050815 0 4 1.7 1.7 0.00 0.00 0.00
20260906050026 69 51 2.6 7.0 0.00 0.00 0.00 92 1018.4
20260906045346 69 56 4.3 7.8 0.00 0.00 0.00 92 1018.4
20260906044706 69 68 4.3 7.0 0.00 0.00 0.00 92 1018.4
20260906044026 69 70 4.3 7.0 0.00 0.00 0.00 92 1018.4
20260906043346 69 39 2.6 5.2 0.00 0.00 0.00 92 1018.4
20260906042706 69 37 3.5 7.0 0.00 0.00 0.00 92 1018.4
20260906042026 69 53 4.3 7.0 0.00 0.00 0.00 92 1018.4
20260906041346 68 77 3.5 7.8 0.00 0.00 0.00 92 1018.0
20260906040706 68 55 5.2 8.7 0.00 0.00 0.00 92 1018.0
20260906040026 0 34 2.6 2.6 0.00 0.00 0.00
20260906035129 68 57 4.3 6.1 0.00 0.00 0.00 92 1017.7
20260906034449 68 68 3.5 7.0 0.00 0.00 0.00 93 1017.7
20260906033809 68 71 4.3 7.0 0.00 0.00 0.00 92 1017.7
20260906033131 68 63 3.5 7.8 0.00 0.00 0.00 92 1017.7
20260906032449 68 60 3.5 9.6 0.00 0.00 0.00 92 1017.3
20260906031809 69 63 3.5 9.6 0.00 0.00 0.00 92 1017.3
20260906031128 69 67 4.3 8.7 0.00 0.00 0.00 91 1017.3
20260906030449 69 70 4.3 9.6 0.00 0.00 0.00 91 1017.3
20260906025809 69 63 6.1 9.6 0.00 0.00 0.00 91 1017.3
20260906025128 69 61 4.3 8.7 0.00 0.00 0.00 90 1017.7
20260906024449 70 63 6.1 8.7 0.00 0.00 0.00 90 1017.3
20260906023808 70 59 5.2 9.6 0.00 0.00 0.00 90 1017.3
20260906023128 70 52 6.1 9.6 0.00 0.00 0.00 89 1017.3
20260906022448 70 66 4.3 4.3 0.00 0.00 0.00 88 1017.3
20260906021658 71 63 4.3 9.6 0.00 0.00 0.00 88 1017.3
20260906021018 71 55 6.1 10.4 0.00 0.00 0.00 87 1017.3
20260906020338 0 55 4.3 4.3 0.00 0.00 0.00
20260906015550 71 82 7.0 9.6 0.00 0.00 0.00 87 1017.3
20260906014910 71 84 4.3 10.4 0.00 0.00 0.00 88 1017.3
20260906014230 71 72 6.1 10.4 0.00 0.00 0.00 88 1017.3
20260906013550 71 60 6.1 10.4 0.00 0.00 0.00 88 1017.7
20260906012910 71 48 6.1 12.2 0.00 0.00 0.00 88 1017.3
20260906012230 71 54 4.3 13.9 0.00 0.00 0.00 88 1017.7
20260906011550 71 69 5.2 13.9 0.00 0.00 0.00 88 1017.3
20260906010910 0 85 4.3 4.3 0.00 0.00 0.00
20260906010122 71 57 6.1 9.6 0.00 0.00 0.00 87 1017.7
20260906005442 71 55 6.1 12.2 0.00 0.00 0.00 87 1017.7
20260906004802 71 47 7.8 12.2 0.00 0.00 0.00 87 1017.3
20260906004122 71 62 4.3 13.9 0.00 0.00 0.00 87 1017.3
20260906003442 71 48 5.2 12.2 0.00 0.00 0.00 86 1017.3
20260906002802 71 41 6.1 11.3 0.00 0.00 0.00 86 1017.3
20260906002121 71 52 6.1 11.3 0.00 0.00 0.00 87 1017.0
20260906001442 71 57 6.1 10.4 0.00 0.00 0.00 86 1017.0
20260906000802 0 31 2.6 2.6 0.00 0.00 0.00
20260905235902 72 41 6.1 12.2 0.00 0.00 0.00 85 1017.0
20260905235222 72 64 7.8 12.2 0.00 0.00 0.00 85 1017.0
20260905234542 0 67 5.2 5.2 0.00 0.00 0.00
20260905233755 73 43 7.0 13.9 0.00 0.00 0.00 85 1016.6
20260905233115 73 52 6.1 14.8 0.00 0.00 0.00 84 1017.0
20260905232435 74 53 8.7 16.5 0.00 0.00 0.00 83 1016.6
20260905231754 74 56 9.6 16.5 0.00 0.00 0.00 81 1016.6
20260905231114 75 47 5.2 12.2 0.00 0.00 0.00 81 1016.6
20260905230434 75 48 7.0 14.8 0.00 0.00 0.00 80 1016.6
20260905225755 75 63 7.0 15.6 0.00 0.00 0.00 80 1016.6
20260905225116 76 64 9.6 16.5 0.00 0.00 0.00 79 1016.6
20260905224435 76 44 8.7 15.6 0.00 0.00 0.00 78 1016.3
20260905223755 76 52 5.2 17.4 0.00 0.00 0.00 78 1016.3
20260905223116 77 52 10.4 17.4 0.00 0.00 0.00 78 1016.3
20260905222436 78 62 11.3 15.6 0.00 0.00 0.00 77 1016.3
20260905221755 78 48 7.8 14.8 0.00 0.00 0.00 76 1016.3
20260905221115 78 69 6.1 13.9 0.00 0.00 0.00 77 1016.3
20260905220436 0 37 7.8 7.8 0.00 0.00 0.00
20260905215647 79 48 6.1 15.6 0.00 0.00 0.00 77 1016.3
20260905215008 80 76 5.2 9.6 0.00 0.00 0.00 75 1016.3
20260905214327 79 55 6.1 9.6 0.00 0.00 0.00 76 1015.9
20260905213647 79 52 4.3 8.7 0.00 0.00 0.00 76 1015.9
20260905213007 79 61 5.2 12.2 0.00 0.00 0.00 75 1015.9
20260905212327 79 56 7.0 13.0 0.00 0.00 0.00 73 1015.9
20260905211647 81 44 5.2 10.4 0.00 0.00 0.00 71 1015.9
20260905211007 0 51 1.7 1.7 0.00 0.00 0.00
20260905210219 80 58 4.3 9.6 0.00 0.00 0.00 74 1015.9
20260905205539 79 52 6.1 9.6 0.00 0.00 0.00 73 1015.9
20260905204859 80 36 3.5 8.7 0.00 0.00 0.00 73 1015.9
20260905204219 80 50 2.6 8.7 0.00 0.00 0.00 72 1015.9
20260905203539 79 64 6.1 10.4 0.00 0.00 0.00 73 1016.3
20260905202900 80 57 7.8 10.4 0.00 0.00 0.00 73 1016.3
20260905202220 81 40 4.3 9.6 0.00 0.00 0.00 71 1015.9
20260905201539 79 36 5.2 9.6 0.00 0.00 0.00 75 1015.9
20260905200859 79 67 4.3 8.7 0.00 0.00 0.00 76 1015.9
20260905200219 78 67 3.5 10.4 0.00 0.00 0.00 78 1015.9
20260905195539 78 60 7.0 11.3 0.00 0.00 0.00 79 1015.9
20260905194859 79 41 4.3 11.3 0.00 0.00 0.00 77 1016.3
20260905194219 78 61 5.2 12.2 0.00 0.00 0.00 79 1016.3
20260905193539 78 46 6.1 9.6 0.00 0.00 0.00 80 1016.3
20260905192859 77 54 2.6 7.8 0.00 0.00 0.00 82 1016.6
20260905192220 76 51 3.5 8.7 0.00 0.00 0.00 83 1016.6
20260905191539 76 26 3.5 8.7 0.00 0.00 0.00 83 1016.6
20260905190900 76 37 4.3 7.0 0.00 0.00 0.00 84 1016.6
20260905190219 76 47 4.3 7.0 0.00 0.00 0.00 84 1016.6
20260905185539 76 56 2.6 7.0 0.00 0.00 0.00 84 1016.6
20260905184900 76 73 4.3 7.0 0.00 0.00 0.00 84 1016.6
20260905184219 76 47 2.6 7.0 0.00 0.00 0.00 84 1016.6
20260905183539 76 51 4.3 7.0 0.00 0.00 0.00 83 1017.0
20260905182859 0 18 3.5 3.5 0.00 0.00 0.00
20260905182110 76 53 4.3 7.0 0.00 0.00 0.00 85 1016.6
20260905181429 75 31 4.3 6.1 0.00 0.00 0.00 85 1016.6
20260905180749 75 58 4.3 7.8 0.00 0.00 0.00 85 1016.6
20260905180109 0 91 1.7 1.7 0.00 0.00 0.00
20260905175215 75 53 7.0 11.3 0.00 0.00 0.00 87 1016.6
20260905174535 0 89 6.1 6.1 0.00 0.00 0.00
20260905173745 0 36 7.0 7.0 0.00 0.00 0.00
20260905172957 75 60 7.0 11.3 0.00 0.00 0.00 86 1016.6
20260905172317 75 42 5.2 11.3 0.00 0.00 0.00 87 1016.6
20260905171636 74 52 4.3 10.4 0.00 0.00 0.00 88 1016.6
20260905170956 74 68 5.2 12.2 0.00 0.00 0.00 88 1016.6
20260905170317 74 53 4.3 12.2 0.00 0.00 0.00 88 1016.6
20260905165637 74 50 6.1 12.2 0.00 0.00 0.00 89 1017.0
20260905164956 0 59 5.2 5.2 0.00 0.00 0.00
20260905164207 74 60 7.0 11.3 0.00 0.00 0.00 88 1017.0
20260905163528 75 80 5.2 9.6 0.00 0.00 0.00 88 1017.0
20260905162848 75 63 4.3 9.6 0.00 0.00 0.00 88 1017.0
20260905162207 75 70 7.0 9.6 0.00 0.00 0.00 87 1016.6
20260905161527 75 73 6.1 10.4 0.00 0.00 0.00 87 1016.6
20260905160847 75 52 4.3 9.6 0.00 0.00 0.00 87 1016.6
20260905160207 75 46 4.3 8.7 0.00 0.00 0.00 87 1016.6
20260905155527 0 78 1.7 1.7 0.00 0.00 0.00
20260905154739 75 47 6.1 10.4 0.00 0.00 0.00 87 1016.6
20260905154059 75 69 3.5 8.7 0.00 0.00 0.00 88 1016.6
20260905153420 75 47 3.5 9.6 0.00 0.00 0.00 88 1016.6
20260905152739 75 33 3.5 8.7 0.00 0.00 0.00 88 1016.3
20260905152059 75 50 5.2 9.6 0.00 0.00 0.00 89 1016.3
20260905151419 74 16 3.5 7.0 0.00 0.00 0.00 89 1016.3
20260905150520 0 43 3.5 3.5 0.00 0.00 0.00
20260905145731 0 76 4.3 4.3 0.00 0.00 0.00
20260905144944 74 43 3.5 9.6 0.00 0.00 0.00 92 1015.9
20260905144303 73 74 5.2 8.7 0.00 0.00 0.00 92 1015.9
20260905143623 73 41 4.3 9.6 0.00 0.00 0.00 92 1016.3
20260905142944 73 51 5.2 8.7 0.00 0.00 0.00 93 1015.9
20260905142306 73 58 2.6 9.6 0.00 0.00 0.00 94 1015.9
20260905141624 73 49 5.2 8.7 0.00 0.00 0.00 94 1015.9
20260905140944 72 35 5.2 9.6 0.00 0.00 0.00 94 1015.9
20260905140304 72 33 3.5 8.7 0.00 0.00 0.00 95 1015.9
20260905135624 72 54 6.1 8.7 0.00 0.00 0.00 95 1015.9
20260905134944 72 34 4.3 8.7 0.00 0.00 0.00 95 1015.9
20260905134304 72 47 5.2 8.7 0.00 0.00 0.00 96 1015.9
20260905133624 0 24 2.6 2.6 0.00 0.00 0.00
20260905132834 72 62 5.2 7.8 0.00 0.00 0.00 97 1015.9
20260905132155 72 48 3.5 7.8 0.00 0.00 0.00 97 1015.9
20260905131515 71 52 5.2 8.7 0.00 0.00 0.00 97 1015.9
20260905130835 71 35 6.1 8.7 0.00 0.00 0.00 97 1016.3
20260905130154 71 45 4.3 7.0 0.00 0.00 0.00 97 1015.9
20260905125514 0 33 4.3 4.3 0.00 0.00 0.00
20260905124724 71 42 6.1 12.2 0.00 0.00 0.00 97 1015.6
20260905124044 71 58 4.3 8.7 0.00 0.00 0.00 96 1015.6
20260905123405 71 26 2.6 6.1 0.00 0.00 0.00 96 1015.2
20260905122616 71 52 5.2 10.4 0.00 0.00 0.00 96 1015.2
20260905121936 71 65 4.3 10.4 0.00 0.00 0.00 96 1014.9
20260905121255 71 60 5.2 9.6 0.00 0.00 0.00 96 1014.9
20260905120615 71 52 2.6 7.0 0.00 0.00 0.00 96 1014.9
20260905115935 71 88 3.5 7.0 0.00 0.00 0.00 96 1014.9